[[{"header":{"parameterUnit":"m.s-1","parameterCategory":1,"la1":30.2991,"la2":30.254,"lo1":-89.0895,"lo2":-89.0444,"dy":0.0017,"dx":0.0017,"nx":28,"ny":28,"refTime":"2025-11-06T09:00:00:Z","depth":0,"parameterNumber":2,"parameterNumberName":"U-component_of_WINDS"},"data":[0,0,0,0,0,0,0,0,0,0,0,0,0,0,0,0,0,0,0,0,0,0,0,0,0,0,0,0,0,0,0,0,0,0,0,0,0,0,0,0,0,0,0,0,0,0,0,0,0,0,0,0,0,0,0,0,0,0,-0.3091,-0.3092,0,-0.3175,-0.3175,-0.3176,-0.321,-0.3209,-0.3209,-0.3209,-0.3292,-0.3294,-0.3296,0,0,0,0,0,0,0,0,0,0,0,0,0,-0.2957,-0.2959,-0.3091,-0.3092,-0.3093,-0.3174,-0.3176,-0.3177,-0.321,-0.3209,-0.3209,-0.3209,-0.3291,-0.3294,-0.3297,0,0,0,0,0,0,0,0,0,0,0,0,0,-0.3025,-0.296,-0.3091,-0.3119,-0.3123,-0.3174,-0.3176,-0.3177,-0.321,-0.3209,-0.3209,-0.3209,-0.329,-0.3294,-0.3297,-0.3325,0,0,-0.3308,-0.331,0,0,0,0,0,0,0,0,-0.3021,-0.303,-0.3114,-0.3117,-0.3121,-0.3181,-0.3159,-0.3227,-0.321,-0.3177,-0.3209,-0.3209,-0.3255,-0.3262,-0.3278,-0.3329,-0.3333,-0.3308,-0.3311,-0.3312,-0.3313,0,0,0,0,0,0,0,-0.3016,-0.3026,-0.3124,-0.3115,-0.312,-0.3127,-0.3136,-0.3172,-0.3216,-0.3179,-0.3182,-0.3192,-0.3257,-0.3274,-0.328,-0.3334,-0.3308,-0.3311,-0.3314,-0.3315,-0.3412,-0.3412,0,0,0,0,0,0,-0.3007,-0.3022,-0.3121,-0.3126,-0.307,-0.313,-0.314,-0.3162,-0.3216,-0.3224,-0.3192,-0.3193,-0.3268,-0.3276,-0.3283,-0.3319,-0.3312,-0.3315,-0.3317,-0.3411,-0.3412,-0.3412,0,0,0,0,0,0,-0.3004,-0.3016,-0.3118,-0.3075,-0.3089,-0.3132,-0.3157,-0.3164,-0.3182,-0.3226,-0.3233,-0.3201,-0.3268,-0.3278,-0.3315,-0.3323,-0.3317,-0.332,-0.3411,-0.3412,-0.3412,-0.3392,0,0,0,0,0,0,-0.3,-0.3015,-0.3027,-0.3075,-0.3091,-0.3149,-0.3158,-0.3166,-0.3188,-0.319,-0.3237,-0.3244,-0.3269,-0.3309,-0.3318,-0.3328,-0.3323,-0.341,-0.3411,-0.3412,-0.3392,-0.3392,-0.3392,0,0,0,0,0,-0.2995,-0.3017,-0.3027,-0.3039,-0.3107,-0.3149,-0.3158,-0.3187,-0.3189,-0.32,-0.3229,-0.3243,-0.332,-0.3313,-0.3323,-0.3334,-0.341,-0.3411,-0.3412,-0.3393,-0.3392,-0.3392,0,0,0,0,0,0,-0.2967,-0.3024,-0.3036,-0.3074,-0.3107,-0.3155,-0.3171,-0.3186,-0.3218,-0.3219,-0.3252,-0.3263,-0.3296,-0.3319,-0.3309,-0.3363,-0.3366,-0.3369,-0.3348,-0.3348,-0.3348,-0.3342,-0.3326,0,0,0,0,0,-0.2966,-0.2997,-0.3044,-0.3073,-0.3089,-0.3127,-0.3147,-0.3166,-0.3201,-0.3215,-0.3246,-0.3278,-0.331,-0.333,-0.3362,-0.3396,-0.3406,-0.3408,-0.3408,-0.3407,-0.341,-0.3429,-0.343,-0.3416,-0.3416,-0.3415,0,0,-0.2963,-0.2997,-0.3015,-0.3068,-0.3096,-0.3126,-0.3138,-0.317,-0.3192,-0.3219,-0.3256,-0.328,-0.3318,-0.3353,-0.337,-0.3373,-0.3416,-0.3409,-0.3408,-0.3411,-0.343,-0.3431,-0.3432,-0.3416,-0.3416,-0.3416,0,0,-0.2972,-0.3002,-0.3029,-0.3057,-0.3099,-0.3124,-0.313,-0.3176,-0.3193,-0.3231,-0.3252,-0.3278,-0.3332,-0.3359,-0.3379,-0.3398,-0.3412,-0.3407,-0.3406,-0.3424,-0.3425,-0.3426,-0.3433,-0.3435,-0.3409,-0.3409,-0.3409,0,-0.2963,-0.301,-0.3041,-0.3072,-0.3094,-0.3121,-0.3148,-0.3173,-0.3223,-0.3237,-0.324,-0.3308,-0.3336,-0.3377,-0.3382,-0.3398,-0.3405,-0.3402,-0.3423,-0.3424,-0.3426,-0.3432,-0.3435,-0.3408,-0.3409,-0.3409,-0.3409,0,-0.2996,-0.3028,-0.3045,-0.3094,-0.3118,-0.3147,-0.3181,-0.3202,-0.3219,-0.3243,-0.3281,-0.3315,-0.3354,-0.3365,-0.3382,-0.3409,-0.3409,-0.3416,-0.342,-0.3426,-0.3432,-0.3435,-0.3407,-0.3408,-0.3408,-0.3408,0,0,-0.2991,-0.3056,-0.3062,-0.3084,-0.3132,-0.3157,-0.3186,-0.3225,-0.3242,-0.3275,-0.33,-0.3345,-0.3352,-0.3375,-0.3395,-0.3411,-0.3423,-0.3416,-0.3418,-0.3416,-0.3454,-0.3448,-0.3451,-0.3432,-0.3433,-0.3433,-0.3451,0,-0.3007,-0.3062,-0.309,-0.3133,-0.3163,-0.3188,-0.3213,-0.3245,-0.3268,-0.3296,-0.3321,-0.3352,-0.336,-0.3374,-0.3391,-0.3418,-0.3431,-0.3417,-0.3455,-0.3456,-0.3445,-0.3454,-0.3448,-0.3463,-0.3454,-0.3454,-0.3455,0,-0.3033,-0.3067,-0.3112,-0.3157,-0.317,-0.3193,-0.323,-0.3257,-0.3293,-0.3308,-0.3334,-0.3353,-0.3384,-0.3385,-0.3427,-0.3417,-0.3434,-0.3449,-0.3451,-0.3455,-0.3456,-0.3459,-0.3469,-0.3471,-0.3459,-0.3459,-0.3458,0,-0.3025,-0.3081,-0.3116,-0.3134,-0.3186,-0.3201,-0.3224,-0.3259,-0.3281,-0.3313,-0.3327,-0.3362,-0.3381,-0.3407,-0.3435,-0.3433,-0.3474,-0.3478,-0.3487,-0.3487,-0.3495,-0.3494,-0.3508,-0.3506,-0.3506,-0.3506,-0.3506,0,-0.3039,-0.3066,-0.3113,-0.3134,-0.3164,-0.3196,-0.3225,-0.3249,-0.328,-0.3306,-0.3329,-0.3352,-0.3388,-0.3415,-0.3437,-0.3468,-0.3476,-0.3489,-0.3495,-0.3487,-0.3486,-0.3499,-0.3499,-0.3507,-0.3506,-0.3506,-0.3506,0,-0.3035,-0.3067,-0.3107,-0.3153,-0.3165,-0.3186,-0.3225,-0.3246,-0.327,-0.3302,-0.3311,-0.3349,-0.3382,-0.3413,-0.3456,-0.3471,-0.3503,-0.351,-0.3491,-0.3494,-0.3502,-0.3501,-0.3525,-0.3529,-0.3524,-0.3524,-0.3524,0,-0.3043,-0.3064,-0.3113,-0.3132,-0.3154,-0.3185,-0.3207,-0.3239,-0.326,-0.3302,-0.3318,-0.3353,-0.3383,-0.3435,-0.3465,-0.3499,-0.3507,-0.3513,-0.3512,-0.3503,-0.3506,-0.3505,-0.3507,-0.3512,-0.3512,-0.3512,-0.3512,0,-0.3052,-0.3067,-0.3099,-0.3135,-0.3161,-0.3192,-0.3222,-0.3236,-0.3274,-0.3297,-0.3332,-0.3355,-0.34,-0.3434,-0.3471,-0.3493,-0.3508,-0.3512,-0.3516,-0.3509,-0.3497,-0.3503,-0.349,-0.3511,-0.3511,-0.3511,-0.3511,-0.3511,-0.3054,-0.3074,-0.3112,-0.3146,-0.3172,-0.3201,-0.3223,-0.325,-0.328,-0.332,-0.3336,-0.3371,-0.3405,-0.3457,-0.3478,-0.3505,-0.3509,-0.3514,-0.3516,-0.3517,-0.3515,-0.3492,-0.3512,-0.3512,-0.3512,-0.3512,-0.3512,0,-0.3065,-0.309,-0.3121,-0.3164,-0.3191,-0.3204,-0.3239,-0.3259,-0.329,-0.3322,-0.3351,-0.339,-0.3423,-0.3456,-0.3491,-0.3506,-0.3514,-0.3514,-0.3514,-0.3518,-0.3511,-0.3504,-0.3507,-0.3507,-0.3507,-0.3507,-0.3507,-0.3507,-0.3074,-0.3108,-0.3127,-0.3175,-0.32,-0.3235,-0.3254,-0.3279,-0.3305,-0.3348,-0.3376,-0.3398,-0.3429,-0.3467,-0.3497,-0.3506,-0.3517,-0.3516,-0.3526,-0.3519,-0.3519,-0.3519,-0.3513,-0.3518,-0.3518,-0.3532,-0.3532,-0.3532]},{"header":{"parameterUnit":"m.s-1","parameterCategory":1,"la1":30.2991,"la2":30.254,"lo1":-89.0895,"lo2":-89.0444,"dy":0.0017,"dx":0.0017,"nx":28,"ny":28,"refTime":"2025-11-06T09:00:00:Z","depth":0,"parameterNumber":3,"parameterNumberName":"V-component_of_WINDS"},"data":[0,0,0,0,0,0,0,0,0,0,0,0,0,0,0,0,0,0,0,0,0,0,0,0,0,0,0,0,0,0,0,0,0,0,0,0,0,0,0,0,0,0,0,0,0,0,0,0,0,0,0,0,0,0,0,0,0,0,3.1012,3.1011,0,3.0931,3.093,3.0929,3.0843,3.0842,3.084,3.0839,3.0757,3.0756,3.0755,0,0,0,0,0,0,0,0,0,0,0,0,0,3.1094,3.1093,3.1012,3.1011,3.101,3.0931,3.093,3.0928,3.0843,3.0842,3.084,3.0839,3.0757,3.0756,3.0755,0,0,0,0,0,0,0,0,0,0,0,0,0,3.104,3.1092,3.1012,3.0958,3.0952,3.0931,3.093,3.0928,3.0843,3.0841,3.084,3.0838,3.0758,3.0756,3.0755,3.0781,0,0,3.075,3.0749,0,0,0,0,0,0,0,0,3.1043,3.1037,3.0967,3.0961,3.0955,3.0895,3.0928,3.0879,3.0844,3.0885,3.0839,3.0837,3.0804,3.0799,3.0788,3.0777,3.0774,3.075,3.0749,3.0748,3.0748,0,0,0,0,0,0,0,3.1047,3.104,3.098,3.0966,3.0959,3.0937,3.0928,3.0918,3.0856,3.0881,3.0874,3.0866,3.0801,3.0789,3.0785,3.0772,3.075,3.0748,3.0747,3.0747,3.078,3.0781,0,0,0,0,0,0,3.1059,3.1044,3.0982,3.0977,3.0996,3.0938,3.0927,3.0916,3.0856,3.0845,3.0868,3.0862,3.0793,3.0787,3.0782,3.0809,3.0748,3.0746,3.0746,3.0778,3.078,3.0782,0,0,0,0,0,0,3.1061,3.1054,3.0986,3.1009,3.0998,3.0938,3.0927,3.0915,3.0904,3.0845,3.0834,3.0867,3.0791,3.0784,3.0782,3.0805,3.0746,3.0744,3.0776,3.0779,3.0781,3.0864,0,0,0,0,0,0,3.1064,3.1056,3.1065,3.101,3.0998,3.0987,3.0928,3.0915,3.0901,3.0893,3.0842,3.0832,3.0789,3.0785,3.078,3.0802,3.0743,3.0773,3.0777,3.078,3.0859,3.0869,3.0878,0,0,0,0,0,3.1067,3.1092,3.1066,3.1059,3.1008,3.0989,3.0982,3.0932,3.0903,3.0912,3.0875,3.0834,3.0803,3.0785,3.0779,3.0801,3.0772,3.0776,3.078,3.0855,3.0867,3.0878,0,0,0,0,0,0,3.1151,3.1083,3.1054,3.1061,3.1031,3.0974,3.0984,3.0947,3.0924,3.0918,3.0857,3.0846,3.0852,3.0826,3.0807,3.0823,3.0781,3.0785,3.084,3.0852,3.0861,3.0868,3.0742,0,0,0,0,0,3.1171,3.1161,3.1102,3.1114,3.11,3.1045,3.1035,3.0999,3.0965,3.0952,3.0914,3.0884,3.0867,3.0858,3.0839,3.0854,3.0842,3.0866,3.0876,3.0884,3.0888,3.0894,3.0904,3.0796,3.0796,3.0796,0,0,3.1211,3.1172,3.117,3.113,3.1102,3.1094,3.1035,3.1028,3.1021,3.0951,3.0947,3.0918,3.088,3.0887,3.0888,3.0865,3.0915,3.0889,3.0896,3.0895,3.09,3.091,3.0919,3.0798,3.0798,3.0797,0,0,3.128,3.1249,3.1256,3.123,3.1189,3.1152,3.1154,3.1102,3.108,3.1075,3.1023,3.1013,3.0986,3.0961,3.0945,3.1004,3.0966,3.1,3.105,3.1057,3.1066,3.1073,3.1095,3.1104,3.1003,3.1004,3.1004,0,3.1335,3.1319,3.1265,3.1261,3.1245,3.1181,3.1188,3.1165,3.1121,3.1112,3.1087,3.1051,3.1021,3.1021,3.1036,3.1024,3.1025,3.1006,3.1069,3.1076,3.1082,3.1102,3.111,3.1008,3.1008,3.1007,3.1007,0,3.1389,3.1379,3.139,3.1348,3.1333,3.1335,3.1281,3.1273,3.1238,3.1204,3.12,3.1161,3.1134,3.1131,3.1097,3.1127,3.1114,3.108,3.1037,3.1098,3.1116,3.1123,3.1015,3.1013,3.1012,3.1011,0,0,3.151,3.1438,3.1443,3.1423,3.1373,3.1364,3.1363,3.1336,3.1331,3.1302,3.13,3.1278,3.1246,3.1228,3.1191,3.1197,3.1247,3.1162,3.116,3.118,3.1278,3.1305,3.1315,3.1221,3.1222,3.1223,3.1282,0,3.1571,3.1565,3.1515,3.1524,3.1514,3.1453,3.1452,3.1422,3.1389,3.1377,3.1341,3.1327,3.1286,3.1274,3.1278,3.1241,3.1267,3.1235,3.122,3.122,3.1232,3.1324,3.1352,3.1409,3.1289,3.129,3.129,0,3.1641,3.1616,3.1624,3.1574,3.1568,3.1568,3.1539,3.1528,3.1492,3.1468,3.1448,3.1406,3.1401,3.136,3.1354,3.1334,3.1325,3.1306,3.1306,3.1304,3.126,3.1325,3.1426,3.1436,3.1301,3.13,3.1299,0,3.1729,3.1698,3.1698,3.1683,3.1625,3.1626,3.1602,3.1564,3.1551,3.1526,3.1517,3.1493,3.1479,3.1461,3.1414,3.1388,3.1413,3.1368,3.1394,3.1396,3.1403,3.1404,3.1505,3.1396,3.1396,3.1395,3.1395,0,3.1803,3.181,3.1737,3.1738,3.1744,3.1687,3.1695,3.1665,3.1632,3.1626,3.1571,3.1567,3.1503,3.1492,3.1455,3.1456,3.145,3.1431,3.1421,3.1437,3.1439,3.143,3.1425,3.1398,3.1397,3.1397,3.1396,0,3.1903,3.1854,3.1851,3.1796,3.1782,3.1789,3.1742,3.174,3.1704,3.1697,3.1692,3.1637,3.162,3.1571,3.1542,3.1517,3.1529,3.151,3.1542,3.1535,3.1565,3.1563,3.1665,3.1676,3.1559,3.156,3.1561,0,3.1954,3.1958,3.1903,3.1895,3.1873,3.186,3.1846,3.1791,3.1779,3.1738,3.1742,3.1721,3.1701,3.1678,3.1635,3.1613,3.1594,3.1631,3.159,3.1605,3.1595,3.1596,3.1597,3.164,3.1642,3.1643,3.1644,0,3.2049,3.2025,3.2007,3.1981,3.1967,3.1944,3.1917,3.1914,3.1851,3.1841,3.1823,3.1808,3.1778,3.1759,3.173,3.1705,3.1665,3.1657,3.1662,3.1678,3.1697,3.1688,3.1567,3.1655,3.1654,3.1653,3.1653,3.1652,3.2126,3.2127,3.2089,3.2071,3.2046,3.2023,3.2018,3.1982,3.1966,3.1937,3.1905,3.1892,3.1856,3.1813,3.1791,3.178,3.1758,3.1765,3.1767,3.177,3.1778,3.1698,3.1774,3.1774,3.1773,3.1773,3.1773,0,3.222,3.2192,3.2176,3.2141,3.2128,3.209,3.2059,3.205,3.2038,3.2008,3.199,3.197,3.1951,3.1906,3.1883,3.1883,3.1864,3.1879,3.1879,3.1874,3.1798,3.1796,3.1894,3.1894,3.1894,3.1894,3.1894,3.1894,3.2267,3.2267,3.2238,3.2224,3.2196,3.2182,3.2168,3.2147,3.2122,3.2102,3.2086,3.2057,3.2021,3.1994,3.1975,3.1963,3.1957,3.1978,3.196,3.189,3.1879,3.1868,3.1866,3.1977,3.1978,3.2037,3.2037,3.2038]}]]